EXPRESS-AT1

Last updated on Tue Sep 22 2026 00:03:13 GMT+0000 (Coordinated Universal Time)

1 39612U 14010A 26264.57547773 -.00000112 00000+0 00000+0 0 9995 2 39612 0.4990 84.3909 0004961 81.1154 118.3291 1.00315799 45782
UTC large
Height (km)
Speed (km/s)
/
Latitude / Longitude
Inclination (degrees)
Orbital Period (minutes)
Azimuth
Elevation
Range (km)
Doppler Factor

Next 0 passes for location: London (51.5072 / 0.1276)

No passes found over London.
EXPRESS-AT1